Location: Little Baddow
(51.7333°N, 0.5667°E)
Time: 13:00:16
(UTC+00:00)

COSMO-SKYMED 1 - Visible Passes

Search period start: 14 February 2026 00:00
Search period end: 24 February 2026 00:00
Orbit: 577 x 579 km, 97.9° (Epoch: 13 February)

Date Brightness Start Highest point End Pass type
(mag) Time Alt. Az. Time Alt. Az. Time Alt. Az.
14 Feb 3.5 04:50:07 10° SE 04:54:03 45° ENE 04:57:59 10° N visible
14 Feb 3.6 06:26:20 10° SW 06:29:32 22° W 06:32:46 10° NW visible
14 Feb 3.0 18:00:39 10° NNE 18:04:29 36° E 18:08:16 10° SSE visible
14 Feb 4.5 19:36:07 10° N 19:39:39 28° WNW 19:43:11 10° WSW visible
15 Feb 3.3 04:54:26 10° SE 04:58:23 50° ENE 05:02:23 10° N visible
15 Feb 3.7 06:30:53 10° SW 06:33:56 20° W 06:37:01 10° NW visible
15 Feb 2.9 18:04:57 10° NNE 18:08:51 39° E 18:12:43 10° SSE visible
15 Feb 4.6 19:40:32 10° N 19:43:58 26° WNW 19:47:24 10° WSW visible
16 Feb 3.1 04:58:43 10° SSE 05:02:44 55° ENE 05:06:46 10° N visible
16 Feb 3.9 06:35:27 10° SW 06:38:20 18° W 06:41:14 10° NW visible
16 Feb 2.8 18:09:16 10° NNE 18:13:14 43° E 18:17:09 10° S visible
16 Feb 4.8 19:44:58 10° N 19:48:18 24° WNW 19:51:37 10° WSW visible
17 Feb 2.9 05:03:01 10° SSE 05:07:04 60° ENE 05:11:08 10° N visible
17 Feb 2.6 18:13:35 10° NNE 18:17:35 48° E 18:21:34 10° S visible
17 Feb 4.9 19:49:23 10° N 19:52:36 22° WNW 19:55:48 10° WSW visible
18 Feb 5.8 03:36:04 10° ENE 03:36:55 11° NE 03:37:46 10° NE visible
18 Feb 2.8 05:07:20 10° SSE 05:11:24 67° ENE 05:15:30 10° N visible
18 Feb 2.5 18:17:54 10° NNE 18:21:57 52° E 18:25:57 10° S visible
18 Feb 5.0 19:53:49 10° NNW 19:56:54 21° WNW 19:59:58 10° WSW visible
19 Feb 5.7 03:39:50 10° ENE 03:41:11 11° NE 03:42:33 10° NE visible
19 Feb 2.6 05:11:38 10° SSE 05:15:44 73° ENE 05:19:51 10° N visible
19 Feb 2.4 18:22:12 10° NNE 18:26:17 58° E 18:30:20 10° S visible
19 Feb 5.1 19:58:15 10° NNW 20:01:11 19° WNW 20:04:07 10° WSW visible
20 Feb 5.7 03:43:45 10° E 03:45:28 12° NE 03:47:10 10° NNE visible
20 Feb 2.5 05:15:57 10° SSE 05:20:03 81° ENE 05:24:11 10° NNW visible
20 Feb 2.4 18:26:31 10° NNE 18:30:37 64° ESE 18:34:41 10° S visible
20 Feb 5.3 20:02:41 10° NNW 20:05:28 18° WNW 20:08:14 10° WSW visible
21 Feb 5.6 03:47:44 10° E 03:49:44 13° NE 03:51:44 10° NNE visible
21 Feb 2.4 05:20:16 10° SSE 05:24:22 88° ENE 05:28:31 10° NNW visible
21 Feb 2.3 18:30:49 10° NNE 18:34:57 71° ESE 18:39:02 10° S visible
21 Feb 5.4 20:07:08 10° NNW 20:09:44 17° WNW 20:12:20 10° W visible
22 Feb 5.5 03:51:45 10° E 03:54:00 14° ENE 03:56:13 10° NNE visible
22 Feb 2.3 05:24:34 10° SSE 05:28:41 84° WSW 05:32:50 10° NNW visible
22 Feb 2.3 18:35:07 10° NNE 18:39:16 78° ESE 18:43:22 10° S visible
22 Feb 5.5 20:11:35 10° NNW 20:14:00 15° WNW 20:16:25 10° W visible
23 Feb 5.4 03:55:48 10° E 03:58:15 16° ENE 04:00:42 10° NNE visible
23 Feb 2.3 05:28:53 10° S 05:32:59 77° WSW 05:37:08 10° NNW visible
23 Feb 2.4 18:39:25 10° NNE 18:43:34 85° ESE 18:47:40 10° SSW visible
23 Feb 5.6 20:16:03 10° NNW 20:18:15 14° NW 20:20:27 10° W visible
